{"data":{"norad_id":55814,"epoch":"2026-05-25T02:32:20.264640Z","epoch_age_seconds":56051,"freshness":"FRESH","line1":"1 55814U 23029U   26145.10579010  .00000152  00000+0  37581-3 0  9994","line2":"2 55814  87.8935 294.3148 0001937 100.3179 259.8170 13.14504191156336","mean_motion":13.14504191,"eccentricity":0.0001937,"inclination_deg":87.8935,"raan_deg":294.3148,"arg_perigee_deg":100.3179,"mean_anomaly_deg":259.817,"bstar":0.00037581,"rev_number":15633,"period_min":109.54700714225,"perigee_km":1204.3159987748,"apogee_km":1207.2540101593,"semimajor_km":7583.9220044671,"source":"CELESTRAK","updated_at":"2026-05-25T13:38:22.694163Z"}}